User: anonymous   Login
Location: Caltech
(34.1382°N, 118.1253°W)
Time: 18:09:32
(UTC-07:00)
Language:

PANSAT - Orbit

View from above orbital plane
View from above orbital plane
View from above satellite
View from above satellite

Ground track
Ground track

The orbit data is extracted from the following two-line orbital elements,

1 25520U 98064B   15090.22473340  .00005225  00000-0  19073-3 0  9998
2 25520 028.4574 086.0545 0004392 032.6438 061.6323 15.25740890910482
Epoch (UTC): 31 March 2015 05:23:36
Eccentricity: 0.0004392
inclination: 28.4574°
perigee height: 485 km
apogee height: 491 km
right ascension of ascending node: 86.0545°
argument of perigee: 32.6438°
revolutions per day: 15.25740890
mean anomaly at epoch: 61.6323°
orbit number at epoch: 91048

The dashed part of the orbit path shows where the satellite is in the earth's shadow,  

DLR